Other Public Products
Issued by NWS Grand Forks, ND

Home | Current Version | Previous Version | Graphics & Text | Print | Product List | Glossary On
Versions: 1 2 3 4 5 6 7 8 9 10 11 12 13 14 15 16 17 18 19 20 21 22 23 24 25 26 27 28 29 30 31 32 33 34 35 36 37 38 39 40 41 42 43 44 45 46 47 48 49 50
000
FPUS83 KFGF 191010
OPUFGF
PRAIRIE TO PINES WEATHER ROUNDUP
NATIONAL WEATHER SERVICE EASTERN NORTH DAKOTA/GRAND FORKS ND
400 AM CST SUN FEB 19 2017

 **SATELLITE DATA USED TO AUGMENT SKY COVER AT AUTOMATED STATIONS**
 *****  WEATHER ACROSS EASTERN NORTH DAKOTA  *****

CITY           SKY/WX    TMP DP  RH WIND       PRES   REMARKS
GRAND FORKS    FAIR      34  28  79 E7        29.82S
GRAND FORKS AF FAIR      33  31  94 E6        29.81F
GRAND CITY NWS NOT AVBL
BUXTON         NOT AVBL
DEVILS LAKE    FAIR      35  30  82 E15       29.74F
FARGO          FAIR      35  33  92 E6        29.79F
WAHPETON ARPT  FAIR      36  32  87 SE9       29.79S
$$

 *****  WEATHER ACROSS CENTRAL AND WESTERN NORTH DAKOTA  *****

CITY           SKY/WX    TMP DP  RH WIND       PRES   REMARKS
JAMESTOWN      MOCLDY    36  34  92 E14       29.70F
BISMARCK       FAIR      35  33  92 E9        29.64S
MINOT          FAIR      32  29  88 NE7       29.67F
MINOT AFB      NOT AVBL
GARRISON         N/A     33  31  92 E13       29.62F WCI  24
WILLISTON      FAIR      33  30  88 NE7       29.61F
DICKINSON      FOG       29  29 100 NE5       29.55F VSB 1/4 WCI  24
HETTINGER      FAIR      33  30  88 E6        29.55F
$$

 *****  OTHER OBSERVATIONS NORTHEAST NORTH DAKOTA  *****

CITY           SKY/WX    TMP DP  RH WIND       PRES   REMARKS
WALHALLA       NOT AVBL
LANGDON        NOT AVBL
CAVALIER       PTSUNNY   32  32 100 NE7       29.84F
GRAFTON        PTSUNNY   34  34 100 NE8       29.85F
CANDO          NOT AVBL
FORT TOTTEN      N/A     35  32  90 E14       29.95S
ROLLA          PTSUNNY   32  32 100 E10       29.76F WCI  24
RUGBY            N/A     32  32 100 E21G26    29.70F WCI  20
 ***** THE ABOVE OBSERVATIONS ARE NON NWS ARE NOT QUALITY
        CONTROLLED AND MAY MIS-REPORT RAIN FOR SNOW...
$$

 *****  OTHER OBSERVATIONS SOUTHEAST NORTH DAKOTA *****

CITY           SKY/WX    TMP DP  RH WIND       PRES   REMARKS
COOPERSTOWN    FAIR      34  34 100 E20       29.75F WCI  22
VALLEY CITY    PTSUNNY   36  36 100 E14       29.76F
OAKES          NOT AVBL
GWINNER        FAIR      34  34 100 E6        29.74F
SHEYENNE NWR     N/A     34  34  99 E7        29.95S
BUFFALO        NOT AVBL
WYNDMERE       NOT AVBL
 ***** THE ABOVE OBSERVATIONS ARE NON NWS ARE NOT QUALITY
       CONTROLLED AND MAY MIS-REPORT RAIN FOR SNOW...
$$

  *****  WEATHER ACROSS NORTHERN MINNESOTA  *****

CITY           SKY/WX    TMP DP  RH WIND       PRES   REMARKS
FLAG ISLAND    FAIR      28  27  93 S3        29.89R
WARROAD        CLOUDY    30  27  86 NE3       29.88F
ROSEAU         MOCLDY    32  27  80 E6        29.88R
HALLOCK        CLOUDY    36  32  87 E8        29.85F
THF RVR FALLS  CLOUDY    35  31  85 E9        29.85F
HALSTAD          N/A     35  34  96 E12         N/A
FOSSTON        FAIR      30  28  93 E6        29.85S WCI  24
BAUDETTE       CLOUDY    31  28  89 CALM      29.88R
WASKISH        CLOUDY    32  30  93 CALM      29.89R
CROOKSTON      FAIR      36  34  93 E12       29.84S
$$
  *****  WEATHER ACROSS CENTRAL AND WEST MINNESOTA  *****

CITY           SKY/WX    TMP DP  RH WIND       PRES   REMARKS
BEMIDJI        MOCLDY    31  31 100 E3        29.87S
PARK RAPIDS    FAIR      32  28  85 E5        29.85S
WADENA         FAIR      30  30 100 CALM      29.85R FOG
DETROIT LAKES  FAIR      34  34 100 SE3       29.84R
MOORHEAD       FAIR      37  34  87 E7        29.80F
FERGUS FALLS   FAIR      43  36  75 SE10      29.84F
ELBOW LAKE     FAIR      38  36  91 E9        29.81F
MORRIS MN      FAIR      37  36  93 SE12      29.81F
STAPLES        FAIR      30  30 100 CALM      29.86S FOG
WHEATON        FAIR      34  32  93 SE10      29.80F
$$
  *****  WEATHER ELSEWHERE ACROSS MINNESOTA  *****

CITY           SKY/WX    TMP DP  RH WIND       PRES   REMARKS
DULUTH         FAIR      33  30  88 N5        29.89R
INTRNTL FALLS  MOCLDY    29  27  92 CALM      29.89R
ELY            FAIR      27  27 100 CALM      29.89R
CLOQUET        FAIR      30  27  86 CALM      29.89S
BRAINERD       FAIR      28  27  96 NE3       29.88S
HIBBING        FAIR      29  29 100 CALM      29.89R
ALEXANDRIA     FAIR      37  34  89 SE9       29.84F
SAINT CLOUD    FAIR      30  29  96 SE3       29.88S
MINNEAPOLIS    FAIR      33  30  88 E5        29.91R
$$

  *****  WEATHER ACROSS SOUTH DAKOTA  *****

CITY           SKY/WX    TMP DP  RH WIND       PRES   REMARKS
SIOUX FALLS    FAIR      36  34  92 E6        29.81F
BROOKINGS      NOT AVBL
WATERTOWN      FAIR      38  35  89 S10       29.76F
HURON          FAIR      40  34  79 S8        29.73F
SISSETON         N/A     34  34 100 S8        29.77F
ABERDEEN       FAIR      38  32  79 S14       29.71F
MITCHELL       FAIR      38  33  82 S9        29.76S
PIERRE         FAIR      41  32  70 SE12      29.64F
MOBRIDGE       FAIR      40  31  70 SE13      29.60F
RAPID CITY     FAIR      41  30  65 E3        29.57F
$$

  *****  SOME WEATHER IN NEARBY STATES *****

CITY           SKY/WX    TMP DP  RH WIND       PRES   REMARKS
GLASGOW MT     CLOUDY    33  30  88 E17       29.48F WCI  22
GREAT FALLS MT FAIR      45  29  53 S13       29.34F
CHEYENNE WY    FAIR      36  25  64 W7        29.66F
SCOTTSBLUFF NE FAIR      38  29  70 W5        29.63S
OMAHA NE       MOCLDY    45  33  63 S7        29.85R
DES MOINES IA  FAIR      41  35  79 SE7       29.92R
DAVENPORT IA   FAIR      32  30  92 CALM      29.93R
CHICAGO IL     FAIR      37  33  85 CALM      29.92R
EAU CLAIRE WI  FAIR      28  27  96 CALM      29.92R FOG
LA CROSSE WI   FAIR      31  29  92 SE5       29.94R
$$

  *****  SOME NATIONAL WEATHER *****

CITY           SKY/WX    TMP DP  RH WIND       PRES   REMARKS
LA GUARDIA NY  MOCLDY    59  33  37 W9        29.72R
RALEIGH NC     FAIR      49  43  80 W5        29.89F
ATLANTA GA     MOCLDY    54  53  97 NW3       29.99R
NEW ORLEANS LA FOG       60  60 100 CALM      29.96S VSB 1/8
OKLAHOMA CITY  CLOUDY    52  52 100 SE12      29.84F FOG
ALBUQUERQUE NM CLOUDY    42  33  70 SE14      29.83R
SALT LAKE CITY CLOUDY    50  35  56 S20       29.60S
LOS ANGELES CA FAIR      50  50 100 E3        29.76R
BOISE ID       CLOUDY    42  39  89 E8        29.51S
SEATTLE WA     CLOUDY    43  41  93 CALM      29.43S
$$

*** WEATHER ACROSS MANITOBA...SASKATCHEWAN AND ONTARIO ***
                ***ONTARIO***

CITY           SKY/WX    TMP DP  RH WIND       PRES   REMARKS
GERALDTON      CLOUDY    34  28  80 NW8       29.79R
THUNDER BAY    MOCLDY    34  27  75 W7        29.88R
SIOUX LOOKOUT  PTCLDY    25  23  93 CALM      29.87R
TORONTO        MOCLDY    39  32  75 W10       29.77R
BIG TROUT LK   CLOUDY    21  19  93 N3        29.88R
PICKLE LAKE    NOT AVBL
DRYDEN         CLEAR     30  27  86 VRB2      29.87R
KENORA         CLOUDY    30  27  86 NE3       29.86S
$$
                *** MANITOBA***

CITY           SKY/WX    TMP DP  RH WIND       PRES   REMARKS
BRANDON        MOCLDY    30  27  86 E13       29.80S WCI  20
DAUPHIN        CLEAR     23  23 100 E7        29.84S WCI  15
ISLAND LAKE    PTCLDY    10   9  92 W5        29.93R WCI   2
PILOT MOUND      N/A     34  30  86 E12         N/A
THE PAS        PTCLDY    25  21  86 E5        29.89R WCI  19
THOMPSON       CLOUDY    18  16  93 CALM      29.93R
WINNIPEG       MOCLDY    25  23  93 E5        29.89R WCI  19
LYNN LAKE      CLOUDY    18  18 100 CALM      29.89R
CHURCHILL      MOCLDY    -8  -9  92 E6        30.01R WCI -21
GILLAM         CLOUDY    14   9  79 N3        29.95R
$$
                ***SASKATCHEWAN***

CITY           SKY/WX    TMP DP  RH WIND       PRES   REMARKS
ESTEVAN        MOCLDY    30  28  93 E15       29.66S WCI  19
KINDERSLEY     FLURRIES  34  30  86 E30G37    29.43F WCI  20
LLOYDMINSTER   LGT SNOW  32  32 100 SE26G35   29.49F WCI  18
PRINCE ALBERT  CLOUDY    28  23  80 E9        29.75R WCI  20
REGINA         CLEAR     32  27  80 E16G23    29.67S WCI  21
YORKTON        CLOUDY    28  25  86 E8        29.77R WC



USA.gov is the U.S. government's official web portal to all federal, state and local government web resources and services.